Orbital Elements at Epoch 2459200.5 (2020-Dec-17.0) TDB
Reference: JPL 25 (heliocentric ecliptic J2000)
Element | Value | Uncertainty (1-sigma) | Units |
e | .09927925443748531 | 3.3589e-08 | |
a | 3.106771052289601 | 1.9537e-08 | au |
q | 2.798333138510328 | 1.0036e-07 | au |
i | 4.542597532893514 | 3.9844e-06 | deg |
node | 99.41237303490819 | 5.7366e-05 | deg |
peri | 159.93678599526 | 6.4246e-05 | deg |
M | 71.68128409503899 | 2.7332e-05 | deg |
tp | 2458802.241019536557 (2019-Nov-14.74101954) | 0.00015319 | TDB |
period | 2000.14878049265 5.48 | 1.8867e-05 5.166e-08 | d yr |
n | .179986610751691 | 1.6978e-09 | deg/d |
Q | 3.415208966068874 | 2.1476e-08 | au |
|
| | Orbit Determination Parameters
Additional Information
|